Météo par heure à Kysle

Ce jour, 4 Août, Mercredi

Heure Température Précipitation Vent Pression Humidité
00:00 +19°C° 0 mm 2 m/s 748 mmHg 61%
01:00 +19°C° 0 mm 2 m/s 748 mmHg 64%
02:00 +19°C° 0 mm 1 m/s 748 mmHg 67%
03:00 +19°C° 0 mm 1 m/s 748 mmHg 68%
04:00 +19°C° 0 mm 1 m/s 748 mmHg 68%
05:00 +19°C° 0 mm 1 m/s 748 mmHg 69%
06:00 +21°C° 0 mm 1 m/s 749 mmHg 61%
07:00 +23°C° 0 mm 1 m/s 749 mmHg 54%
08:00 +25°C° 0 mm 1 m/s 749 mmHg 47%
09:00 +27°C° 0 mm 1 m/s 749 mmHg 42%
10:00 +28°C° 0 mm 2 m/s 749 mmHg 38%
11:00 +29°C° 0 mm 2 m/s 749 mmHg 33%
12:00 +29°C° 0 mm 3 m/s 749 mmHg 30%
13:00 +30°C° 0 mm 3 m/s 749 mmHg 28%
14:00 +30°C° 0 mm 3 m/s 749 mmHg 27%
15:00 +30°C° 0 mm 3 m/s 749 mmHg 27%
16:00 +30°C° 0 mm 3 m/s 749 mmHg 28%
17:00 +30°C° 0 mm 3 m/s 748 mmHg 28%
18:00 +28°C° 0 mm 3 m/s 749 mmHg 31%
19:00 +26°C° 0 mm 3 m/s 749 mmHg 35%
20:00 +24°C° 0 mm 2 m/s 749 mmHg 39%
21:00 +23°C° 0 mm 2 m/s 749 mmHg 41%
22:00 +21°C° 0 mm 2 m/s 749 mmHg 44%
23:00 +20°C° 0 mm 2 m/s 749 mmHg 47%

Demain, 5 Août, Jeudi

Heure Température Précipitation Vent Pression Humidité
00:00 +20°C° 0 mm 2 m/s 749 mmHg 50%
01:00 +19°C° 0 mm 2 m/s 749 mmHg 52%
02:00 +19°C° 0 mm 2 m/s 749 mmHg 55%
03:00 +19°C° 0 mm 2 m/s 749 mmHg 56%
04:00 +19°C° 0 mm 2 m/s 749 mmHg 56%
05:00 +19°C° 0 mm 2 m/s 749 mmHg 57%
06:00 +23°C° 0 mm 2 m/s 749 mmHg 50%
07:00 +25°C° 0 mm 2 m/s 749 mmHg 44%
08:00 +28°C° 0 mm 3 m/s 749 mmHg 38%
09:00 +29°C° 0 mm 3 m/s 749 mmHg 35%
10:00 +30°C° 0 mm 3 m/s 748 mmHg 32%
11:00 +32°C° 0 mm 4 m/s 748 mmHg 30%
12:00 +31°C° 0 mm 3 m/s 748 mmHg 29%
13:00 +31°C° 0 mm 3 m/s 748 mmHg 28%
14:00 +33°C° 0 mm 3 m/s 747 mmHg 28%
15:00 +33°C° 0 mm 3 m/s 747 mmHg 28%
16:00 +31°C° 0 mm 3 m/s 747 mmHg 29%
17:00 +31°C° 0 mm 3 m/s 746 mmHg 30%
18:00 +29°C° 0 mm 3 m/s 746 mmHg 34%
19:00 +27°C° 0 mm 3 m/s 746 mmHg 39%
20:00 +25°C° 0 mm 3 m/s 746 mmHg 44%
21:00 +24°C° 0 mm 3 m/s 746 mmHg 45%
22:00 +24°C° 0 mm 3 m/s 745 mmHg 46%
23:00 +22°C° 0 mm 3 m/s 745 mmHg 48%

Après-demain, 6 Août, Vendredi

Heure Température Précipitation Vent Pression Humidité
00:00 +21°C° 0 mm 3 m/s 745 mmHg 49%
01:00 +21°C° 0 mm 3 m/s 745 mmHg 50%
02:00 +20°C° 0 mm 3 m/s 745 mmHg 50%
03:00 +20°C° 0 mm 3 m/s 744 mmHg 50%
04:00 +20°C° 0 mm 2 m/s 744 mmHg 50%
05:00 +20°C° 0 mm 2 m/s 744 mmHg 50%
06:00 +24°C° 0 mm 3 m/s 744 mmHg 48%
07:00 +26°C° 0 mm 4 m/s 743 mmHg 45%
08:00 +29°C° 0 mm 4 m/s 743 mmHg 43%
09:00 +32°C° 0 mm 5 m/s 743 mmHg 39%
10:00 +34°C° 0 mm 5 m/s 743 mmHg 35%
11:00 +36°C° 0 mm 6 m/s 743 mmHg 31%
12:00 +36°C° 0 mm 6 m/s 742 mmHg 30%
13:00 +38°C° 0 mm 7 m/s 742 mmHg 30%
14:00 +38°C° 0 mm 7 m/s 742 mmHg 29%
15:00 +38°C° 0 mm 6 m/s 741 mmHg 30%
16:00 +38°C° 0 mm 6 m/s 741 mmHg 31%
17:00 +36°C° 0 mm 5 m/s 741 mmHg 32%
18:00 +33°C° 0.2 mm 5 m/s 741 mmHg 42%
19:00 +29°C° 0.2 mm 4 m/s 741 mmHg 51%
20:00 +26°C° 0.2 mm 4 m/s 741 mmHg 61%
21:00 +26°C° 0 mm 3 m/s 741 mmHg 61%
22:00 +26°C° 0 mm 3 m/s 741 mmHg 60%
23:00 +26°C° 0 mm 3 m/s 741 mmHg 60%

7 Août, Samedi

Heure Température Précipitation Vent Pression Humidité
00:00 +25°C° 0.2 mm 4 m/s 741 mmHg 59%
01:00 +25°C° 0.2 mm 4 m/s 741 mmHg 58%
02:00 +23°C° 0.2 mm 5 m/s 741 mmHg 57%
03:00 +23°C° 0.7 mm 5 m/s 741 mmHg 60%
04:00 +22°C° 0.7 mm 5 m/s 741 mmHg 64%
05:00 +22°C° 0.7 mm 4 m/s 741 mmHg 67%
06:00 +23°C° 0.3 mm 4 m/s 741 mmHg 63%
07:00 +25°C° 0.3 mm 4 m/s 741 mmHg 60%
08:00 +26°C° 0.3 mm 4 m/s 741 mmHg 56%
09:00 +28°C° 0.3 mm 4 m/s 741 mmHg 50%
10:00 +30°C° 0.3 mm 3 m/s 742 mmHg 44%
11:00 +33°C° 0.3 mm 3 m/s 742 mmHg 39%
12:00 +34°C° 0.3 mm 3 m/s 742 mmHg 36%
13:00 +35°C° 0.3 mm 2 m/s 741 mmHg 33%
14:00 +36°C° 0.3 mm 2 m/s 741 mmHg 30%
15:00 +35°C° 0.1 mm 1 m/s 741 mmHg 31%
16:00 +35°C° 0.1 mm 1 m/s 741 mmHg 31%
17:00 +35°C° 0.1 mm 1 m/s 741 mmHg 32%
18:00 +32°C° 0.4 mm 1 m/s 741 mmHg 41%
19:00 +29°C° 0.4 mm 2 m/s 742 mmHg 50%
20:00 +26°C° 0.4 mm 2 m/s 742 mmHg 58%
21:00 +25°C° 0.4 mm 3 m/s 742 mmHg 64%
22:00 +24°C° 0.4 mm 3 m/s 743 mmHg 70%
23:00 +22°C° 0.4 mm 3 m/s 743 mmHg 76%

8 Août, Dimanche

Heure Température Précipitation Vent Pression Humidité
00:00 +22°C° 0.5 mm 3 m/s 743 mmHg 81%
01:00 +21°C° 0.5 mm 3 m/s 743 mmHg 85%
02:00 +21°C° 0.5 mm 3 m/s 744 mmHg 90%
03:00 +21°C° 0.4 mm 4 m/s 744 mmHg 91%
04:00 +20°C° 0.4 mm 4 m/s 744 mmHg 92%
05:00 +20°C° 0.4 mm 4 m/s 744 mmHg 93%
06:00 +22°C° 0 mm 4 m/s 744 mmHg 86%
07:00 +23°C° 0 mm 5 m/s 744 mmHg 80%
08:00 +25°C° 0 mm 5 m/s 745 mmHg 73%
09:00 +28°C° 0 mm 5 m/s 745 mmHg 63%
10:00 +30°C° 0 mm 4 m/s 745 mmHg 53%
11:00 +33°C° 0 mm 4 m/s 745 mmHg 43%
12:00 +34°C° 0 mm 3 m/s 745 mmHg 39%
13:00 +35°C° 0 mm 3 m/s 745 mmHg 36%
14:00 +36°C° 0 mm 2 m/s 745 mmHg 33%
15:00 +35°C° 0 mm 2 m/s 745 mmHg 35%
16:00 +34°C° 0 mm 3 m/s 745 mmHg 37%
17:00 +34°C° 0 mm 3 m/s 745 mmHg 40%
18:00 +31°C° 0.1 mm 3 m/s 745 mmHg 46%
19:00 +29°C° 0.1 mm 3 m/s 745 mmHg 51%
20:00 +27°C° 0.1 mm 3 m/s 746 mmHg 57%
21:00 +26°C° 0 mm 3 m/s 746 mmHg 60%
22:00 +25°C° 0 mm 3 m/s 746 mmHg 63%
23:00 +24°C° 0 mm 3 m/s 747 mmHg 66%

9 Août, Lundi

Heure Température Précipitation Vent Pression Humidité
00:00 +22°C° 0 mm 3 m/s 747 mmHg 69%
01:00 +22°C° 0 mm 3 m/s 747 mmHg 72%
02:00 +21°C° 0 mm 3 m/s 747 mmHg 75%
03:00 +21°C° 0 mm 3 m/s 747 mmHg 75%
04:00 +21°C° 0 mm 3 m/s 747 mmHg 74%
05:00 +20°C° 0 mm 3 m/s 747 mmHg 74%
06:00 +24°C° 0 mm 3 m/s 747 mmHg 64%
07:00 +26°C° 0 mm 3 m/s 747 mmHg 55%
08:00 +28°C° 0 mm 3 m/s 747 mmHg 46%
09:00 +29°C° 0 mm 3 m/s 747 mmHg 43%
10:00 +31°C° 0 mm 3 m/s 747 mmHg 39%
11:00 +34°C° 0 mm 3 m/s 747 mmHg 36%
12:00 +34°C° 0 mm 3 m/s 747 mmHg 34%
13:00 +35°C° 0 mm 3 m/s 747 mmHg 33%
14:00 +35°C° 0 mm 3 m/s 747 mmHg 31%
15:00 +35°C° 0 mm 3 m/s 747 mmHg 31%
16:00 +35°C° 0 mm 3 m/s 747 mmHg 30%
17:00 +35°C° 0 mm 4 m/s 746 mmHg 29%
18:00 +31°C° 0 mm 3 m/s 747 mmHg 31%
19:00 +29°C° 0 mm 3 m/s 747 mmHg 33%
20:00 +27°C° 0 mm 3 m/s 747 mmHg 35%
21:00 +26°C° 0 mm 3 m/s 747 mmHg 38%
22:00 +25°C° 0 mm 3 m/s 747 mmHg 41%
23:00 +24°C° 0 mm 3 m/s 747 mmHg 43%
Voir plus

Nous avons besoin de votre consentement

Meteoprog et ses fournisseurs de services peuvent stocker et accéder à des données personnelles telles que des cookies, des identifiants d'appareils ou d'autres technologies similaires sur votre appareil et traiter ces données pour personnaliser le contenu et les publicités, ainsi que pour fournir des fonctionnalités de médias sociaux et analyser le trafic.

  • Stocker et/ou accéder à des informations sur votre appareil

    Des cookies, des identifiants d'appareils ou d'autres informations peuvent être stockés ou accessibles sur votre appareil aux fins indiquées ci-dessus.

  • Annonces et contenus personnalisés, mesure des annonces et des contenus, connaissance de l'audience et développement de produits

    Les annonces et le contenu peuvent être personnalisés en fonction d'un profil. D'autres données peuvent être ajoutées pour mieux personnaliser les annonces et le contenu. Les performances des publicités et du contenu peuvent être mesurées. Il est possible d'obtenir des informations sur le public qui a vu les publicités et le contenu. Ces données peuvent être utilisées pour développer ou améliorer l'expérience de l'utilisateur, les systèmes et les logiciels.

En cliquant sur "J'accepte", vous autorisez l'utilisation de cookies, des identifiants d'appareils, des balises web ou d'autres technologies similaires. Vos paramètres peuvent être modifiés dans le navigateur de votre appareil.

Dans certains cas, des intérêts légitimes peuvent être invoqués plutôt qu'un consentement. Vous pouvez en savoir plus à ce sujet dans notre Politique de confidentialité et de cookies.